Wind_Speed
5 5 5 5 4 5 4 4 5 5 5 5 5 5 4 2 0 7 3 5 2 3 3 5 6 3 2 2 2 2 4 2 3 5 2 4 3 5 3 4 10 9 7 6 8
5 4 3 3 3 4 3 4 4 3 3 3 4 5 3 4 2 4 5 5 2 2 4 6 4 1 1 1 1 4 3 6 3 3 3 4 6 5 4 7 8 11 13 11 13
5 2 2 3 3 3 3 2 3 2 1 2 4 2 1 2 2 3 4 4 3 2 4 4 2 1 1 1 2 2 4 3 3 4 3 3 4 5 6 6 14 17 18 15 18
5 3 2 2 2 2 2 3 3 3 3 2 5 2 1 1 2 4 3 3 4 2 1 2 2 2 2 1 1 1 1 3 2 4 3 3 3 4 15 15 7 8 13 17 20
6 4 2 1 1 2 2 3 2 3 2 3 5 5 1 2 2 4 3 2 3 2 3 4 2 1 2 2 0 1 2 3 4 6 6 6 9 7 19 21 16 14 15 18 20
8 5 3 1 0 2 2 2 2 3 5 6 6 4 3 2 3 3 2 2 2 1 0 3 2 2 3 1 2 1 3 6 5 6 5 3 4 2 6 4 14 21 19 19 20
10 8 5 3 3 3 4 4 3 4 5 5 5 4 4 3 3 5 3 2 1 2 2 2 1 1 2 1 1 2 5 5 3 3 3 3 4 8 14 7 10 18 21 19 21
13 10 8 6 5 5 6 6 6 4 3 4 4 4 3 4 3 3 4 2 1 1 1 0 1 2 1 1 4 3 4 4 2 4 1 2 9 6 10 9 15 19 21 22 23
17 14 12 6 4 5 6 7 9 9 9 8 7 4 3 3 3 3 4 2 2 2 2 1 1 2 2 3 4 6 2 2 7 7 1 2 9 6 6 9 19 22 24 24 24
20 16 14 7 5 7 8 8 8 9 10 8 8 4 4 2 4 5 3 2 2 1 2 1 1 3 3 3 3 3 3 4 6 2 2 4 18 21 21 21 27 24 27 27 26
19 18 15 8 7 8 5 3 3 3 6 5 2 4 4 4 6 3 2 1 2 1 2 1 3 5 6 5 3 2 3 5 5 4 3 6 11 20 16 18 21 24 26 29 30
17 17 16 9 8 9 5 2 2 2 5 8 8 8 7 5 3 5 3 2 2 2 2 4 4 4 4 4 3 3 3 6 6 2 1 7 12 22 14 8 12 19 24 28 28
17 16 16 11 5 8 8 6 5 5 2 3 4 4 4 4 3 4 3 2 3 2 5 5 2 6 4 3 3 4 5 4 6 5 3 6 8 7 4 4 7 7 11 20 28
18 16 15 12 4 9 5 7 7 7 4 3 2 3 3 3 3 5 4 2 1 4 3 5 1 4 3 4 7 4 5 2 1 3 3 4 6 7 5 8 5 8 7 10 15
19 17 14 11 7 6 7 8 8 2 4 2 3 3 3 4 2 3 4 2 3 3 3 5 5 4 4 6 7 6 2 1 2 3 3 2 1 8 3 7 6 7 9 6 9
19 19 16 11 8 8 9 8 1 5 5 2 3 2 1 3 2 3 2 2 1 0 1 6 1 5 6 2 4 3 2 4 4 3 1 4 5 5 4 1 6 2 8 5 6
20 18 17 13 7 7 8 3 5 3 1 3 4 3 2 3 3 5 3 3 5 1 3 2 4 2 3 2 2 3 4 4 4 2 5 5 3 9 3 6 5 2 2 8 7
20 19 17 11 8 6 4 4 3 4 6 0 2 1 4 4 4 3 1 3 5 2 2 4 6 8 5 5 7 5 6 5 6 4 5 0 7 5 1 5 10 12 15 14 12
23 20 15 10 3 4 1 2 7 7 2 3 1 2 3 2 3 3 6 5 6 9 8 5 6 2 3 2 3 4 4 2 1 1 2 4 7 4 4 6 10 14 17 16 14
24 22 10 2 3 4 3 6 5 4 3 2 7 7 7 5 4 4 5 4 4 8 2 3 5 3 2 2 2 4 3 3 2 4 6 5 6 6 6 3 4 7 13 14 15
21 11 3 5 8 3 3 7 5 8 6 7 6 5 8 6 7 5 5 4 4 4 6 5 4 2 4 7 9 2 3 3 2 4 4 4 6 4 7 6 7 6 11 13 14
10 4 7 10 4 1 3 5 3 4 5 4 3 7 7 7 6 6 8 8 5 8 6 4 4 5 11 3 2 4 8 9 6 5 4 2 11 3 6 7 13 12 11 12 11
14 8 9 5 3 3 5 5 4 3 4 4 5 7 4 6 3 7 5 2 8 6 6 5 2 4 8 1 0 4 5 5 1 3 14 6 8 5 6 6 9 13 12 9 10
7 3 5 7 6 3 3 6 5 5 5 6 5 4 3 4 6 5 4 4 8 8 10 9 7 12 15 10 3 4 6 8 7 5 6 17 17 7 10 9 10 11 11 11 10
4 5 4 4 4 3 1 3 3 4 5 3 2 5 7 6 4 8 6 4 5 6 5 6 14 8 19 13 6 14 16 14 15 17 12 23 18 6 11 11 15 16 15 14 11
6 6 8 7 11 4 4 6 13 12 6 8 10 10 10 14 13 12 6 4 6 3 6 3 4 4 18 14 16 21 29 21 22 24 24 25 30 8 15 17 16 16 15 13 10
6 9 7 6 4 6 8 10 5 10 13 27 19 13 13 18 25 23 22 21 12 10 7 6 4 4 13 11 13 15 24 24 15 14 14 18 14 10 11 11 12 14 13 11 8
Wind_Direction
134 162 181 197 210 208 215 219 216 218 225 253 287 320 343 204 44 22 15 359 323 179 143 147 144 133 113 95 99 121 64 167 209 161 237 180 180 208 221 190 194 204 227 232 199
105 137 171 200 207 207 212 213 204 208 227 269 297 302 311 222 260 7 16 15 83 178 174 154 163 153 138 125 106 88 107 211 189 193 211 204 207 221 190 213 224 225 226 224 201
78 101 158 184 188 194 198 186 182 172 149 15 340 288 359 231 285 330 4 18 38 96 160 169 170 140 107 69 28 128 169 202 234 212 198 223 249 223 206 235 222 225 226 208 196
62 72 95 131 168 181 174 165 157 153 129 20 19 28 23 7 241 334 356 18 23 9 169 182 206 178 95 72 80 76 224 201 225 219 201 217 247 250 223 241 246 257 235 218 207
48 55 71 102 173 180 170 165 175 184 171 24 6 12 314 280 291 327 348 357 350 347 221 213 194 146 152 173 44 146 239 230 249 237 251 259 251 248 264 265 255 226 215 219 219
33 31 28 8 217 214 198 212 237 226 251 297 318 319 300 254 354 335 334 340 343 1 87 205 197 145 130 179 151 231 269 265 263 238 239 240 256 350 261 242 237 227 230 228 225
25 18 6 326 266 242 236 238 246 276 282 298 307 300 264 248 330 1 321 294 333 55 69 107 138 183 150 29 347 328 340 326 234 233 233 297 259 230 240 267 242 227 227 226 221
22 12 353 319 277 256 254 250 259 256 339 293 296 304 259 238 284 319 341 267 267 271 37 90 80 114 66 91 21 32 48 356 232 176 308 76 272 260 229 238 242 225 222 221 218
19 12 1 350 292 271 275 273 263 263 274 298 277 282 257 234 253 299 333 257 263 242 255 232 165 118 96 80 12 11 281 273 312 202 132 176 277 237 212 246 251 234 223 220 218
21 14 7 6 19 327 294 284 273 266 270 269 251 283 234 228 276 285 306 279 221 261 161 184 95 72 42 81 238 261 299 264 247 268 224 255 267 278 264 258 257 243 228 222 222
14 14 10 2 5 349 336 307 286 264 229 232 225 261 263 270 285 236 262 264 206 160 158 44 66 221 221 194 166 165 220 248 252 273 264 224 273 285 290 250 252 247 231 225 225
4 7 8 8 11 15 14 19 20 297 299 245 245 250 259 272 273 236 241 218 161 202 136 18 229 203 132 150 163 193 252 258 286 230 239 301 278 280 290 254 252 251 235 228 226
352 357 2 3 6 14 33 42 9 343 266 267 228 246 240 233 255 225 222 193 176 198 193 181 207 143 155 172 191 224 205 221 231 340 269 319 282 295 299 269 269 274 249 233 231
348 348 355 359 360 359 13 360 347 344 55 247 232 221 207 211 269 215 217 209 223 218 189 229 134 170 173 231 161 275 195 182 257 38 249 12 289 305 301 296 258 253 240 221 217
348 348 346 353 340 351 339 333 329 357 358 186 199 194 209 214 302 218 214 191 217 208 126 257 167 191 203 220 167 228 134 182 176 181 10 259 182 267 321 302 269 238 224 206 200
347 344 344 336 327 333 336 329 338 43 259 227 176 211 252 201 231 172 203 206 182 141 226 241 216 189 210 158 177 128 91 56 53 92 320 218 166 274 233 266 322 317 220 172 154
343 339 335 327 310 318 334 333 29 151 332 215 225 179 216 222 230 177 188 198 187 165 265 296 221 204 167 138 50 101 61 322 331 352 232 174 176 241 295 325 278 232 122 140 129
338 337 328 316 305 304 323 51 207 236 231 348 149 158 223 170 243 195 201 269 219 123 129 205 310 179 176 202 183 178 171 163 263 231 262 96 244 251 198 39 56 70 101 113 114
332 333 324 309 299 304 238 111 214 210 211 177 60 198 267 237 207 183 214 225 221 178 182 174 266 117 169 150 145 178 188 187 218 83 339 228 292 289 94 40 46 60 88 86 98
333 331 313 253 320 327 90 230 236 216 151 134 194 178 219 213 186 185 207 209 236 192 138 220 290 205 140 107 53 168 171 80 5 257 250 269 267 234 197 160 40 56 74 92 99
335 329 284 271 307 252 201 231 273 250 200 183 217 245 220 206 200 209 228 260 208 170 165 158 162 235 115 199 187 131 227 222 190 170 225 281 253 203 214 162 139 103 102 107 106
344 332 291 291 311 264 215 210 270 260 222 264 223 217 206 200 222 230 226 215 174 153 174 207 173 235 217 238 198 183 205 177 207 231 236 262 265 142 128 137 141 136 127 122 116
329 282 284 270 232 252 280 283 261 234 226 210 242 209 180 199 237 205 220 220 178 166 178 178 239 317 315 19 351 213 203 199 91 82 239 240 257 162 130 101 117 126 130 124 128
310 309 283 231 242 216 277 261 259 255 248 225 245 187 163 234 232 259 232 246 201 203 201 171 202 235 251 250 143 206 217 197 178 218 227 234 259 185 198 171 152 144 137 138 130
248 248 257 282 282 235 236 298 276 288 234 251 272 217 203 239 233 251 245 264 218 231 205 189 249 209 250 262 261 270 259 237 222 229 236 264 255 259 204 171 159 147 132 123 111
281 323 335 301 298 276 200 249 254 263 229 248 249 247 241 247 237 255 213 178 224 186 179 200 259 221 264 259 261 265 259 254 245 247 242 251 263 111 115 117 123 132 133 125 114
299 294 333 269 277 264 262 261 278 315 255 250 251 261 255 243 241 261 264 262 245 225 207 181 205 209 256 259 255 255 251 243 237 232 226 241 258 144 140 137 132 128 125 122 119
Height
1509 1510 1510 1511 1511 1511 1511 1511 1511 1511 1511 1510 1509 1508 1507 1506 1505 1504 1503 1502 1500 1500 1501 1501 1501 1500 1500 1500 1500 1500 1510 1515 1508 1511 1504 1504 1505 1505 1505 1505 1506 1505 1505 1505 1505
1510 1511 1511 1511 1511 1511 1511 1511 1511 1510 1510 1509 1508 1507 1506 1506 1505 1504 1504 1502 1501 1501 1501 1500 1500 1500 1500 1500 1500 1500 1512 1507 1503 1503 1504 1503 1504 1503 1504 1504 1503 1502 1501 1502 1503
1512 1512 1511 1511 1511 1511 1511 1511 1510 1510 1509 1508 1507 1506 1505 1505 1506 1504 1503 1502 1501 1500 1500 1500 1500 1500 1500 1500 1500 1501 1506 1502 1502 1502 1503 1503 1502 1502 1501 1502 1497 1496 1498 1499 1500
1513 1512 1512 1511 1511 1511 1510 1510 1510 1509 1509 1508 1507 1506 1505 1505 1508 1503 1502 1502 1501 1500 1500 1500 1501 1501 1500 1501 1500 1502 1500 1501 1501 1501 1502 1502 1501 1499 1497 1491 1493 1493 1495 1496 1498
1514 1513 1512 1511 1511 1510 1510 1510 1509 1509 1509 1508 1507 1505 1505 1505 1504 1503 1502 1501 1501 1500 1500 1500 1500 1499 1500 1500 1500 1500 1500 1499 1499 1500 1500 1500 1498 1498 1489 1488 1489 1490 1491 1492 1494
1515 1513 1511 1510 1510 1510 1509 1509 1509 1508 1508 1507 1506 1505 1505 1505 1503 1502 1501 1501 1500 1499 1499 1499 1499 1499 1499 1499 1501 1500 1500 1499 1498 1498 1499 1498 1496 1496 1483 1483 1483 1486 1487 1489 1491
1515 1513 1511 1510 1509 1509 1509 1508 1508 1507 1506 1506 1505 1504 1503 1504 1502 1501 1500 1500 1500 1499 1499 1499 1499 1499 1499 1499 1500 1500 1501 1498 1496 1496 1497 1496 1493 1489 1480 1481 1481 1482 1483 1485 1487
1516 1513 1511 1509 1509 1508 1508 1507 1507 1506 1505 1504 1504 1503 1502 1501 1501 1500 1500 1499 1499 1499 1499 1499 1499 1499 1499 1500 1501 1502 1505 1507 1496 1496 1496 1496 1494 1478 1478 1479 1477 1478 1479 1481 1484
1516 1513 1511 1508 1507 1507 1506 1505 1505 1504 1504 1503 1503 1502 1501 1500 1500 1500 1499 1499 1498 1499 1499 1499 1498 1499 1500 1504 1509 1510 1511 1507 1501 1494 1495 1497 1490 1474 1476 1476 1474 1473 1474 1476 1480
1518 1514 1511 1509 1507 1505 1504 1503 1503 1503 1502 1502 1502 1504 1501 1499 1499 1498 1498 1497 1497 1498 1499 1499 1499 1501 1504 1508 1516 1509 1509 1506 1507 1495 1496 1498 1488 1470 1472 1471 1465 1467 1469 1472 1475
1518 1515 1512 1509 1507 1504 1503 1502 1505 1504 1501 1499 1499 1498 1498 1498 1497 1497 1497 1496 1497 1497 1499 1498 1504 1507 1500 1501 1500 1502 1506 1508 1501 1494 1496 1495 1488 1469 1462 1463 1459 1459 1463 1466 1469
1519 1515 1512 1508 1506 1504 1502 1502 1502 1503 1498 1496 1496 1496 1496 1496 1496 1495 1496 1497 1496 1498 1498 1503 1504 1496 1496 1498 1500 1503 1506 1507 1498 1494 1496 1492 1486 1467 1459 1456 1453 1453 1456 1460 1465
1519 1515 1512 1508 1506 1505 1503 1503 1502 1501 1499 1495 1494 1494 1495 1495 1494 1494 1495 1494 1494 1497 1498 1502 1494 1494 1495 1498 1501 1503 1504 1502 1499 1498 1495 1496 1487 1470 1456 1454 1452 1452 1452 1455 1459
1518 1515 1512 1508 1509 1505 1504 1502 1501 1500 1506 1496 1494 1493 1494 1493 1493 1492 1492 1494 1494 1496 1495 1497 1493 1494 1496 1498 1500 1501 1494 1494 1497 1503 1507 1494 1498 1475 1459 1457 1452 1450 1451 1452 1455
1517 1513 1511 1508 1507 1505 1505 1502 1501 1500 1532 1494 1492 1492 1492 1494 1493 1491 1492 1492 1492 1493 1496 1492 1494 1495 1497 1494 1494 1494 1492 1495 1497 1504 1506 1501 1508 1476 1461 1454 1450 1448 1449 1451 1454
1515 1512 1509 1508 1506 1506 1503 1502 1502 1511 1525 1492 1490 1490 1492 1491 1490 1490 1491 1492 1492 1492 1492 1491 1490 1490 1488 1488 1490 1492 1494 1501 1508 1511 1514 1492 1499 1478 1461 1455 1452 1449 1449 1452 1454
1514 1511 1508 1507 1506 1504 1502 1502 1514 1520 1491 1492 1490 1490 1490 1489 1488 1488 1489 1491 1493 1493 1494 1489 1488 1485 1485 1488 1490 1492 1500 1511 1508 1513 1497 1493 1497 1467 1454 1457 1454 1452 1451 1453 1455
1513 1510 1507 1505 1504 1502 1502 1504 1514 1498 1494 1486 1487 1488 1491 1487 1487 1487 1489 1491 1486 1487 1498 1498 1497 1484 1482 1482 1486 1494 1496 1506 1500 1498 1490 1490 1482 1457 1455 1455 1455 1454 1453 1453 1456
1510 1508 1505 1503 1502 1501 1502 1514 1505 1495 1485 1487 1489 1491 1490 1486 1488 1487 1489 1487 1480 1482 1490 1499 1492 1479 1480 1480 1482 1490 1496 1489 1493 1499 1503 1480 1468 1455 1456 1457 1458 1458 1456 1458 1459
1509 1505 1502 1501 1501 1501 1503 1504 1494 1485 1484 1485 1490 1487 1491 1486 1489 1489 1484 1476 1474 1474 1475 1479 1489 1478 1480 1481 1484 1485 1486 1495 1503 1497 1493 1478 1473 1459 1455 1457 1459 1461 1462 1462 1462
1508 1504 1502 1501 1500 1500 1505 1500 1488 1482 1483 1486 1486 1485 1485 1483 1485 1486 1478 1472 1469 1473 1475 1477 1484 1481 1481 1482 1480 1490 1489 1488 1489 1488 1488 1483 1461 1450 1451 1454 1459 1461 1461 1462 1463
1508 1508 1501 1500 1502 1499 1498 1489 1484 1480 1481 1481 1481 1481 1482 1480 1481 1483 1477 1470 1467 1468 1475 1474 1483 1485 1476 1467 1468 1470 1472 1473 1474 1484 1483 1480 1447 1450 1451 1453 1455 1459 1461 1462 1464
1508 1504 1498 1498 1501 1498 1491 1487 1483 1481 1480 1479 1479 1477 1475 1478 1481 1475 1470 1465 1466 1467 1470 1472 1480 1485 1471 1470 1468 1467 1467 1465 1466 1470 1466 1468 1444 1453 1455 1457 1460 1461 1463 1465 1465
1511 1505 1497 1494 1492 1492 1490 1486 1484 1478 1477 1476 1474 1473 1475 1475 1473 1469 1468 1462 1462 1463 1464 1466 1471 1468 1463 1455 1460 1466 1461 1459 1459 1464 1456 1441 1438 1453 1454 1456 1460 1462 1462 1465 1465
1510 1502 1498 1494 1489 1489 1490 1486 1482 1481 1476 1474 1471 1472 1472 1473 1470 1468 1465 1463 1461 1461 1463 1464 1461 1467 1451 1453 1456 1451 1450 1450 1452 1449 1448 1425 1433 1431 1438 1446 1454 1459 1461 1464 1465
1508 1502 1497 1492 1489 1487 1485 1481 1478 1476 1476 1471 1470 1468 1467 1465 1463 1459 1459 1459 1456 1458 1458 1461 1460 1459 1449 1450 1451 1447 1433 1437 1435 1432 1434 1431 1419 1434 1444 1449 1453 1456 1459 1463 1465
1505 1502 1500 1490 1486 1484 1478 1474 1472 1474 1464 1462 1461 1461 1461 1454 1451 1451 1451 1450 1449 1450 1454 1457 1455 1453 1436 1440 1440 1433 1417 1419 1417 1415 1417 1420 1414 1435 1444 1449 1453 1456 1458 1461 1463